[[{"header":{"parameterUnit":"m.s-1","parameterCategory":2,"la1":30.2991,"la2":30.254,"lo1":-89.0895,"lo2":-89.0444,"dy":0.0017,"dx":0.0017,"nx":28,"ny":28,"refTime":"2024-05-07T21:00:00:Z","depth":"0","parameterNumber":2,"parameterNumberName":"U-component_of_CURRENTS"},"data":[0,0,0,0,0,0,0,0,0,0,0,0,0,0,0,0,0,0,0,0,0,0,0,0,0,0,0,0,0,0,0,0,0,0,0,0,0,0,0,0,0,0,0,0,0,0,0,0,0,0,0,0,0,0,0,0,0,0,-0.2278,-0.2278,0,-0.2292,-0.2292,-0.2292,-0.2259,-0.2258,-0.2257,-0.2257,-0.2214,-0.2213,-0.2213,0,0,0,0,0,0,0,0,0,0,0,0,0,-0.2221,-0.2222,-0.2278,-0.2278,-0.2278,-0.2292,-0.2292,-0.2292,-0.2259,-0.2258,-0.2257,-0.2256,-0.2214,-0.2213,-0.2213,0,0,0,0,0,0,0,0,0,0,0,0,0,-0.224,-0.2223,-0.2278,-0.2265,-0.2264,-0.2292,-0.2292,-0.2292,-0.226,-0.2258,-0.2257,-0.2256,-0.2214,-0.2213,-0.2213,-0.2236,0,0,-0.2211,-0.2211,0,0,0,0,0,0,0,0,-0.2239,-0.2242,-0.2267,-0.2266,-0.2265,-0.2274,-0.2256,-0.2271,-0.226,-0.2259,-0.2257,-0.2255,-0.2231,-0.2229,-0.2232,-0.2234,-0.2232,-0.2211,-0.2211,-0.2211,-0.2211,0,0,0,0,0,0,0,-0.2237,-0.2241,-0.2281,-0.2267,-0.2266,-0.2259,-0.226,-0.2259,-0.225,-0.2259,-0.2257,-0.2263,-0.2229,-0.2233,-0.2231,-0.2231,-0.2211,-0.2211,-0.2211,-0.221,-0.2258,-0.226,0,0,0,0,0,0,-0.2242,-0.224,-0.2281,-0.2282,-0.2251,-0.2261,-0.2262,-0.2271,-0.2251,-0.2247,-0.2264,-0.2261,-0.2235,-0.2232,-0.2229,-0.2258,-0.2211,-0.221,-0.221,-0.2257,-0.2259,-0.226,0,0,0,0,0,0,-0.224,-0.2245,-0.228,-0.2262,-0.2266,-0.2263,-0.2274,-0.2272,-0.2269,-0.2255,-0.225,-0.2262,-0.2233,-0.223,-0.2232,-0.2256,-0.221,-0.221,-0.2255,-0.2257,-0.226,-0.2313,0,0,0,0,0,0,-0.2239,-0.2245,-0.225,-0.2263,-0.2268,-0.23,-0.2275,-0.2273,-0.2275,-0.2272,-0.2252,-0.2247,-0.2232,-0.2233,-0.2231,-0.2254,-0.2209,-0.2253,-0.2256,-0.2259,-0.231,-0.2317,-0.2324,0,0,0,0,0,-0.2237,-0.2251,-0.225,-0.2255,-0.2276,-0.2301,-0.2303,-0.2294,-0.2277,-0.2284,-0.227,-0.2247,-0.2251,-0.2234,-0.2232,-0.2255,-0.2251,-0.2255,-0.2259,-0.2306,-0.2316,-0.2324,0,0,0,0,0,0,-0.2225,-0.2249,-0.2249,-0.2268,-0.2285,-0.2296,-0.2302,-0.2297,-0.2294,-0.2285,-0.2263,-0.2258,-0.2273,-0.2259,-0.2241,-0.228,-0.225,-0.2253,-0.2287,-0.2296,-0.2303,-0.23,-0.2209,0,0,0,0,0,-0.2229,-0.2244,-0.2267,-0.228,-0.2291,-0.2296,-0.2303,-0.2302,-0.2304,-0.23,-0.2288,-0.2281,-0.229,-0.2286,-0.229,-0.2306,-0.2277,-0.2322,-0.2329,-0.2335,-0.2334,-0.2323,-0.2328,-0.2272,-0.2272,-0.2272,0,0,-0.2226,-0.2242,-0.2249,-0.2279,-0.2288,-0.2315,-0.2296,-0.2313,-0.2332,-0.2297,-0.231,-0.2305,-0.2301,-0.2323,-0.2328,-0.231,-0.2336,-0.234,-0.2345,-0.234,-0.2327,-0.2332,-0.2337,-0.2275,-0.2274,-0.2274,0,0,-0.2235,-0.2246,-0.2265,-0.2287,-0.2312,-0.2324,-0.233,-0.2346,-0.2349,-0.2368,-0.2353,-0.236,-0.2364,-0.2371,-0.2374,-0.2423,-0.2377,-0.2427,-0.2455,-0.2445,-0.2449,-0.2452,-0.2414,-0.2413,-0.2427,-0.2427,-0.2427,0,-0.223,-0.2261,-0.2274,-0.2304,-0.2325,-0.233,-0.236,-0.2374,-0.2387,-0.2395,-0.2377,-0.2395,-0.239,-0.242,-0.244,-0.2438,-0.2411,-0.2421,-0.2453,-0.2455,-0.2457,-0.2418,-0.2416,-0.243,-0.243,-0.2429,-0.2429,0,-0.2258,-0.2287,-0.2301,-0.2343,-0.2367,-0.2394,-0.2423,-0.244,-0.244,-0.245,-0.2472,-0.2467,-0.2472,-0.2483,-0.2475,-0.2501,-0.2469,-0.2464,-0.2426,-0.2466,-0.2422,-0.2419,-0.2434,-0.2433,-0.2432,-0.2432,0,0,-0.2229,-0.2307,-0.2309,-0.2338,-0.2391,-0.2411,-0.2456,-0.2494,-0.2509,-0.2522,-0.2534,-0.2564,-0.2547,-0.255,-0.2543,-0.2538,-0.2532,-0.2508,-0.2506,-0.2461,-0.2484,-0.2399,-0.2388,-0.2528,-0.2528,-0.2528,-0.2443,0,-0.2243,-0.2307,-0.2344,-0.2399,-0.2433,-0.2467,-0.2505,-0.2539,-0.2553,-0.2565,-0.2571,-0.2579,-0.2578,-0.2571,-0.2574,-0.2547,-0.253,-0.2554,-0.246,-0.2457,-0.2369,-0.2384,-0.229,-0.2201,-0.244,-0.2439,-0.2439,0,-0.2247,-0.2295,-0.2355,-0.243,-0.2446,-0.2476,-0.2526,-0.2563,-0.2594,-0.2602,-0.2615,-0.2608,-0.2619,-0.2598,-0.2571,-0.2584,-0.2538,-0.2509,-0.2505,-0.2404,-0.2368,-0.2203,-0.2187,-0.2169,-0.2434,-0.2435,-0.2435,0,-0.2205,-0.2294,-0.2341,-0.2368,-0.2456,-0.2479,-0.2515,-0.2561,-0.2589,-0.2612,-0.2617,-0.2629,-0.2619,-0.259,-0.254,-0.2553,-0.248,-0.2489,-0.2365,-0.2357,-0.2247,-0.223,-0.2193,-0.2452,-0.2452,-0.2452,-0.2453,0,-0.2199,-0.223,-0.2321,-0.2346,-0.2388,-0.2454,-0.249,-0.2526,-0.257,-0.2588,-0.2621,-0.2616,-0.2616,-0.2578,-0.2534,-0.2431,-0.2474,-0.2362,-0.2332,-0.2263,-0.2248,-0.2202,-0.2229,-0.2449,-0.245,-0.245,-0.2451,0,-0.2131,-0.2202,-0.2251,-0.2342,-0.2368,-0.2387,-0.2468,-0.2488,-0.2544,-0.2563,-0.2569,-0.26,-0.2548,-0.2518,-0.2453,-0.2407,-0.2279,-0.2272,-0.2175,-0.2136,-0.201,-0.2044,-0.1971,-0.1919,-0.2129,-0.2126,-0.2124,0,-0.2101,-0.2122,-0.2216,-0.2235,-0.227,-0.2321,-0.2351,-0.2446,-0.2474,-0.2539,-0.2532,-0.2511,-0.2458,-0.2337,-0.2252,-0.2139,-0.2152,-0.1994,-0.2011,-0.1981,-0.1998,-0.2033,-0.1998,-0.1882,-0.1878,-0.1875,-0.1872,0,-0.2021,-0.2049,-0.2083,-0.2132,-0.2168,-0.2226,-0.228,-0.2307,-0.2407,-0.2416,-0.24,-0.2362,-0.2274,-0.2126,-0.2007,-0.1931,-0.1953,-0.1922,-0.1924,-0.1825,-0.1828,-0.177,-0.1954,-0.1843,-0.1846,-0.1849,-0.185,-0.1851,-0.1926,-0.1924,-0.1965,-0.1993,-0.2044,-0.2086,-0.2064,-0.2146,-0.2161,-0.2132,-0.2198,-0.2077,-0.2025,-0.184,-0.1779,-0.1648,-0.1721,-0.1597,-0.1644,-0.1685,-0.1628,-0.1732,-0.1575,-0.1576,-0.1577,-0.1578,-0.1579,0,-0.1795,-0.1803,-0.1822,-0.1853,-0.1843,-0.1925,-0.197,-0.1904,-0.1855,-0.188,-0.1818,-0.1716,-0.1607,-0.1576,-0.1485,-0.1407,-0.1397,-0.1371,-0.1417,-0.1396,-0.1498,-0.148,-0.1255,-0.1255,-0.1255,-0.1255,-0.1255,-0.1255,-0.1726,-0.1688,-0.1701,-0.1632,-0.1643,-0.1552,-0.1532,-0.1472,-0.1439,-0.1317,-0.1264,-0.124,-0.1315,-0.1453,-0.1381,-0.1309,-0.13,-0.1246,-0.1287,-0.1387,-0.1413,-0.1438,-0.1427,-0.1195,-0.1195,-0.1128,-0.1127,-0.1127]},{"header":{"parameterUnit":"m.s-1","parameterCategory":2,"la1":30.2991,"la2":30.254,"lo1":-89.0895,"lo2":-89.0444,"dy":0.0017,"dx":0.0017,"nx":28,"ny":28,"refTime":"2024-05-07T21:00:00:Z","depth":"0","parameterNumber":3,"parameterNumberName":"V-component_of_CURRENTS"},"data":[0,0,0,0,0,0,0,0,0,0,0,0,0,0,0,0,0,0,0,0,0,0,0,0,0,0,0,0,0,0,0,0,0,0,0,0,0,0,0,0,0,0,0,0,0,0,0,0,0,0,0,0,0,0,0,0,0,0,-0.0142,-0.0141,0,-0.0061,-0.006,-0.0059,0.0002,0.0003,0.0003,0.0003,0.0125,0.0127,0.013,0,0,0,0,0,0,0,0,0,0,0,0,0,-0.0201,-0.02,-0.0142,-0.0141,-0.014,-0.0061,-0.006,-0.0059,0.0002,0.0003,0.0003,0.0004,0.0124,0.0127,0.0131,0,0,0,0,0,0,0,0,0,0,0,0,0,-0.0152,-0.02,-0.0142,-0.0101,-0.0097,-0.0062,-0.006,-0.0059,0.0002,0.0003,0.0003,0.0004,0.0123,0.0127,0.0131,0.0144,0,0,0.0144,0.0146,0,0,0,0,0,0,0,0,-0.0155,-0.015,-0.0108,-0.0104,-0.0099,-0.004,-0.0036,0.0011,0.0002,-0.0034,0.0003,0.0004,0.0072,0.008,0.0096,0.015,0.0155,0.0144,0.0147,0.0149,0.015,0,0,0,0,0,0,0,-0.0158,-0.0153,-0.0109,-0.0107,-0.0102,-0.0073,-0.0065,-0.0027,0.0016,-0.0031,-0.0027,-0.002,0.0075,0.0091,0.0099,0.0157,0.0144,0.0148,0.0151,0.0152,0.0254,0.0254,0,0,0,0,0,0,-0.0174,-0.0156,-0.0111,-0.0106,-0.0127,-0.0072,-0.0064,-0.0059,0.0015,0.0026,-0.0021,-0.0018,0.0084,0.0094,0.0103,0.0138,0.0149,0.0153,0.0155,0.0254,0.0254,0.0254,0,0,0,0,0,0,-0.0176,-0.0171,-0.0114,-0.013,-0.0121,-0.0072,-0.0067,-0.0057,-0.0041,0.0022,0.0034,-0.0014,0.0085,0.0097,0.014,0.0143,0.0155,0.0158,0.0254,0.0254,0.0254,0.0199,0,0,0,0,0,0,-0.0178,-0.0172,-0.0176,-0.0132,-0.0121,-0.0101,-0.0067,-0.0056,-0.0038,-0.0033,0.0032,0.0044,0.0086,0.0133,0.0144,0.0149,0.0162,0.0253,0.0254,0.0254,0.02,0.0197,0.0194,0,0,0,0,0,-0.018,-0.0191,-0.0177,-0.0172,-0.0128,-0.0102,-0.0094,-0.0056,-0.0039,-0.0037,0.0013,0.0042,0.0143,0.0136,0.0149,0.0156,0.0253,0.0254,0.0254,0.0202,0.0198,0.0194,0,0,0,0,0,0,-0.022,-0.0185,-0.0168,-0.0168,-0.0141,-0.0092,-0.0089,-0.0063,-0.0023,-0.0017,0.0044,0.0059,0.0097,0.0133,0.0124,0.0186,0.0203,0.0206,0.0159,0.0156,0.0153,0.014,0.0165,0,0,0,0,0,-0.0232,-0.0231,-0.019,-0.0192,-0.0181,-0.0137,-0.0123,-0.0097,-0.0056,-0.0038,0.0008,0.006,0.0108,0.0135,0.0177,0.021,0.0254,0.0223,0.022,0.0217,0.0216,0.0292,0.0296,0.0255,0.0255,0.0255,0,0,-0.0249,-0.023,-0.0229,-0.0201,-0.0176,-0.0166,-0.0126,-0.0111,-0.0096,-0.0031,-0.0001,0.0047,0.0113,0.0152,0.0172,0.0183,0.0249,0.0218,0.0215,0.0216,0.0293,0.0297,0.0301,0.0256,0.0255,0.0255,0,0,-0.0286,-0.0265,-0.0276,-0.0255,-0.0225,-0.0195,-0.0194,-0.0149,-0.0123,-0.009,-0.0035,0.0017,0.0077,0.0134,0.017,0.0176,0.0227,0.0183,0.0165,0.0238,0.0242,0.0246,0.0294,0.0303,0.0187,0.0187,0.0187,0,-0.0309,-0.0312,-0.0276,-0.0278,-0.0265,-0.0212,-0.0216,-0.0182,-0.0129,-0.0102,-0.0091,0.0022,0.0073,0.0144,0.0146,0.017,0.0208,0.0172,0.0234,0.0239,0.0244,0.0292,0.0303,0.0184,0.0184,0.0185,0.0185,0,-0.0347,-0.0348,-0.0353,-0.0335,-0.0317,-0.0312,-0.0262,-0.0238,-0.0202,-0.0158,-0.0093,-0.0017,0.0054,0.0078,0.0114,0.0178,0.0191,0.0216,0.024,0.0245,0.0295,0.0307,0.018,0.0181,0.0182,0.0183,0,0,-0.0403,-0.0384,-0.0387,-0.0387,-0.0345,-0.0336,-0.0308,-0.0263,-0.0236,-0.0177,-0.0133,-0.0045,0.0002,0.0046,0.0106,0.017,0.0235,0.02,0.0205,0.0241,0.0379,0.0408,0.0425,0.0271,0.0273,0.0275,0.0394,0,-0.0443,-0.0469,-0.0437,-0.045,-0.0457,-0.0395,-0.0373,-0.0321,-0.0265,-0.0209,-0.0113,-0.0054,-0.001,0.0025,0.0097,0.0204,0.0266,0.0199,0.0374,0.0379,0.0401,0.044,0.0473,0.0585,0.0406,0.0408,0.0409,0,-0.0489,-0.05,-0.0526,-0.0506,-0.0501,-0.0493,-0.0439,-0.041,-0.0312,-0.0266,-0.0181,-0.0105,0.0003,0.0033,0.0218,0.0172,0.0265,0.0344,0.0351,0.0409,0.0432,0.0556,0.0614,0.075,0.0428,0.0427,0.0426,0,-0.0555,-0.0558,-0.0582,-0.0576,-0.0545,-0.0536,-0.0512,-0.0431,-0.0398,-0.0299,-0.0262,-0.0123,-0.0046,0.0088,0.025,0.0237,0.0449,0.0459,0.0573,0.0575,0.0654,0.066,0.0863,0.0587,0.0587,0.0587,0.0586,0,-0.0611,-0.0628,-0.0617,-0.0632,-0.065,-0.0601,-0.059,-0.0541,-0.0459,-0.0406,-0.0299,-0.0219,-0.0028,0.0118,0.0249,0.0453,0.0457,0.0581,0.062,0.0634,0.0636,0.0798,0.084,0.0591,0.059,0.0589,0.0589,0,-0.0677,-0.0669,-0.07,-0.0688,-0.0685,-0.0699,-0.0658,-0.064,-0.0559,-0.0486,-0.0457,-0.0275,-0.0076,0.0108,0.0349,0.0461,0.0732,0.0708,0.0697,0.0732,0.0951,0.0986,0.1197,0.1286,0.0854,0.0855,0.0857,0,-0.0711,-0.0736,-0.0757,-0.0779,-0.0777,-0.0784,-0.0781,-0.0705,-0.0672,-0.0506,-0.047,-0.0265,-0.0087,0.0258,0.0492,0.0735,0.0826,0.0888,0.0877,0.0984,0.1053,0.1059,0.1119,0.0956,0.0958,0.096,0.0961,0,-0.0772,-0.0779,-0.0807,-0.0862,-0.0878,-0.0884,-0.0865,-0.0843,-0.0725,-0.0632,-0.0441,-0.0279,0.0062,0.0392,0.0684,0.0813,0.0987,0.0929,0.1068,0.1176,0.1172,0.1269,0.0831,0.0976,0.0975,0.0974,0.0973,0.0972,-0.0808,-0.0849,-0.0886,-0.0929,-0.0957,-0.095,-0.0904,-0.0839,-0.0741,-0.0498,-0.0412,-0.0088,0.0308,0.0748,0.09,0.1197,0.1144,0.1281,0.132,0.132,0.1398,0.0975,0.1144,0.1143,0.1143,0.1142,0.1142,0,-0.0847,-0.0885,-0.0943,-0.0981,-0.0999,-0.0991,-0.0926,-0.0811,-0.0634,-0.04,-0.0175,0.03,0.0698,0.1048,0.1437,0.1592,0.1616,0.165,0.1685,0.1734,0.1402,0.1399,0.1597,0.1597,0.1597,0.1597,0.1597,0.1597,-0.0865,-0.0929,-0.0958,-0.0992,-0.1,-0.0919,-0.0841,-0.0649,-0.0439,-0.0024,0.0316,0.0563,0.096,0.1557,0.1925,0.1943,0.2087,0.2043,0.2134,0.1914,0.1882,0.1852,0.1863,0.2156,0.2156,0.246,0.2463,0.2465]}],[{"header":{"parameterUnit":"m.s-1","parameterCategory":2,"la1":30.2991,"la2":30.254,"lo1":-89.0895,"lo2":-89.0444,"dy":0.0017,"dx":0.0017,"nx":28,"ny":28,"refTime":"2024-05-07T21:00:00:Z","depth":"2","parameterNumber":2,"parameterNumberName":"U-component_of_CURRENTS"},"data":[0,0,0,0,0,0,0,0,0,0,0,0,0,0,0,0,0,0,0,0,0,0,0,0,0,0,0,0,0,0,0,0,0,0,0,0,0,0,0,0,0,0,0,0,0,0,0,0,0,0,0,0,0,0,0,0,0,0,-0.215,-0.215,0,-0.2169,-0.2169,-0.2169,-0.2144,-0.2143,-0.2142,-0.2141,-0.2108,-0.2108,-0.2108,0,0,0,0,0,0,0,0,0,0,0,0,0,-0.2092,-0.2093,-0.215,-0.215,-0.2151,-0.2169,-0.2169,-0.2169,-0.2144,-0.2143,-0.2142,-0.2141,-0.2109,-0.2108,-0.2108,0,0,0,0,0,0,0,0,0,0,0,0,0,-0.2113,-0.2093,-0.215,-0.2142,-0.2141,-0.2169,-0.2169,-0.2169,-0.2144,-0.2143,-0.2142,-0.2141,-0.2109,-0.2108,-0.2108,-0.2129,0,0,-0.2107,-0.2107,0,0,0,0,0,0,0,0,-0.2112,-0.2115,-0.2142,-0.2142,-0.2142,-0.2155,-0.2137,-0.2154,-0.2144,-0.2141,-0.2141,-0.214,-0.2121,-0.212,-0.2124,-0.2127,-0.2126,-0.2107,-0.2107,-0.2107,-0.2107,0,0,0,0,0,0,0,-0.211,-0.2114,-0.2155,-0.2143,-0.2143,-0.2137,-0.2139,-0.214,-0.2135,-0.2141,-0.214,-0.2145,-0.212,-0.2124,-0.2123,-0.2125,-0.2107,-0.2107,-0.2107,-0.2107,-0.2154,-0.2155,0,0,0,0,0,0,-0.2113,-0.2113,-0.2155,-0.2156,-0.2126,-0.214,-0.2141,-0.215,-0.2136,-0.2133,-0.2146,-0.2144,-0.2125,-0.2123,-0.2121,-0.2151,-0.2107,-0.2107,-0.2107,-0.2153,-0.2154,-0.2156,0,0,0,0,0,0,-0.2112,-0.2117,-0.2154,-0.2136,-0.2141,-0.2142,-0.2152,-0.2151,-0.2152,-0.2141,-0.2137,-0.2148,-0.2124,-0.2122,-0.2128,-0.2149,-0.2107,-0.2106,-0.2151,-0.2153,-0.2155,-0.2207,0,0,0,0,0,0,-0.211,-0.2117,-0.2123,-0.2137,-0.2142,-0.2176,-0.2153,-0.2152,-0.2158,-0.2155,-0.2141,-0.2137,-0.2123,-0.2128,-0.2127,-0.2148,-0.2106,-0.2149,-0.2152,-0.2154,-0.2204,-0.2211,-0.2217,0,0,0,0,0,-0.2108,-0.2123,-0.2123,-0.2128,-0.2151,-0.2177,-0.2179,-0.2175,-0.2159,-0.2169,-0.2158,-0.2137,-0.2144,-0.2129,-0.2128,-0.2149,-0.2148,-0.2151,-0.2154,-0.2201,-0.2209,-0.2217,0,0,0,0,0,0,-0.2099,-0.2122,-0.2123,-0.2143,-0.2161,-0.2173,-0.2181,-0.2179,-0.2179,-0.2172,-0.2153,-0.2149,-0.2165,-0.2153,-0.2136,-0.2173,-0.2144,-0.2147,-0.218,-0.2188,-0.2195,-0.2191,-0.2106,0,0,0,0,0,-0.2102,-0.2118,-0.2141,-0.2156,-0.2167,-0.2174,-0.2183,-0.2184,-0.2188,-0.2186,-0.2178,-0.2173,-0.218,-0.2178,-0.2182,-0.2199,-0.2172,-0.2214,-0.222,-0.2226,-0.2224,-0.2213,-0.2218,-0.2166,-0.2166,-0.2166,0,0,-0.2101,-0.2117,-0.2124,-0.2155,-0.2165,-0.2192,-0.2176,-0.2195,-0.2214,-0.2184,-0.22,-0.2196,-0.2191,-0.2212,-0.2218,-0.2201,-0.2226,-0.223,-0.2235,-0.2229,-0.2217,-0.2222,-0.2226,-0.2168,-0.2168,-0.2168,0,0,-0.2112,-0.2124,-0.2142,-0.2165,-0.2191,-0.2203,-0.221,-0.2229,-0.2233,-0.2254,-0.224,-0.2248,-0.2254,-0.2258,-0.226,-0.2306,-0.2264,-0.231,-0.2337,-0.2327,-0.2331,-0.2334,-0.2299,-0.2299,-0.231,-0.2311,-0.2311,0,-0.2108,-0.2138,-0.2152,-0.2181,-0.2201,-0.221,-0.2238,-0.2254,-0.227,-0.2277,-0.2264,-0.2282,-0.2278,-0.2303,-0.2321,-0.232,-0.2296,-0.2305,-0.2334,-0.2336,-0.2338,-0.2302,-0.2301,-0.2313,-0.2313,-0.2313,-0.2313,0,-0.2136,-0.2163,-0.2178,-0.2218,-0.2242,-0.2269,-0.2297,-0.2316,-0.2319,-0.2329,-0.2351,-0.2347,-0.2353,-0.2363,-0.2356,-0.2378,-0.235,-0.2344,-0.2309,-0.2347,-0.2306,-0.2304,-0.2318,-0.2317,-0.2316,-0.2315,0,0,-0.2112,-0.2184,-0.2187,-0.2213,-0.2265,-0.2284,-0.2327,-0.2363,-0.2377,-0.2394,-0.2405,-0.2433,-0.242,-0.2422,-0.2416,-0.2411,-0.2408,-0.2386,-0.2385,-0.2344,-0.2365,-0.2282,-0.2271,-0.2405,-0.2405,-0.2405,-0.2328,0,-0.2126,-0.2184,-0.2219,-0.227,-0.2301,-0.2334,-0.237,-0.2402,-0.2418,-0.2431,-0.2437,-0.2447,-0.2447,-0.2444,-0.2445,-0.2421,-0.2406,-0.2428,-0.2342,-0.2339,-0.2254,-0.2267,-0.2115,-0.2028,-0.2325,-0.2325,-0.2324,0,-0.213,-0.2174,-0.2229,-0.2295,-0.231,-0.2339,-0.2385,-0.2421,-0.2452,-0.2462,-0.2477,-0.2473,-0.2484,-0.2467,-0.2442,-0.2455,-0.2415,-0.2388,-0.2384,-0.2285,-0.2252,-0.2042,-0.2012,-0.232,-0.232,-0.232,-0.2321,0,-0.2091,-0.2171,-0.2214,-0.2239,-0.2319,-0.2341,-0.2375,-0.2419,-0.2445,-0.2472,-0.2479,-0.2492,-0.2485,-0.2459,-0.2416,-0.2428,-0.2361,-0.2369,-0.2251,-0.2244,-0.2085,-0.2064,-0.2335,-0.2335,-0.2335,-0.2335,-0.2336,0,-0.2084,-0.2112,-0.2195,-0.2218,-0.2257,-0.2317,-0.2351,-0.2386,-0.243,-0.2446,-0.2483,-0.2479,-0.2484,-0.245,-0.241,-0.2313,-0.2355,-0.2247,-0.222,-0.2099,-0.2081,-0.2315,-0.2314,-0.2332,-0.2333,-0.2334,-0.2334,0,-0.2022,-0.2087,-0.2131,-0.2214,-0.2238,-0.2256,-0.2332,-0.235,-0.2407,-0.2424,-0.2433,-0.2466,-0.2419,-0.2395,-0.2335,-0.229,-0.2215,-0.2165,-0.2011,-0.1967,-0.2105,-0.2108,-0.2033,-0.203,-0.2027,-0.2024,-0.2022,0,-0.1995,-0.2013,-0.2099,-0.2116,-0.215,-0.2197,-0.2224,-0.2313,-0.2336,-0.24,-0.2391,-0.2379,-0.2328,-0.2217,-0.213,-0.2024,-0.2103,-0.1833,-0.1838,-0.2094,-0.2075,-0.2082,-0.2089,-0.1644,-0.1639,-0.1635,-0.1631,0,-0.1921,-0.1949,-0.198,-0.2023,-0.2056,-0.2103,-0.2151,-0.2174,-0.2266,-0.2279,-0.2265,-0.2232,-0.2142,-0.1965,-0.1852,-0.1776,-0.1846,-0.1746,-0.204,-0.1752,-0.1722,-0.1706,-0.1726,-0.1595,-0.1598,-0.1601,-0.1603,-0.1604,-0.1836,-0.1834,-0.1871,-0.1895,-0.194,-0.1969,-0.1948,-0.2011,-0.2024,-0.1998,-0.2066,-0.1934,-0.1911,-0.1633,-0.1543,-0.1466,-0.159,-0.1525,-0.1539,-0.1558,-0.1535,-0.1503,-0.1327,-0.1329,-0.1331,-0.1333,-0.1334,0,-0.1712,-0.172,-0.1736,-0.1758,-0.1736,-0.1822,-0.1855,-0.1795,-0.1744,-0.1766,-0.171,-0.1478,-0.1367,-0.1336,-0.1167,-0.1146,-0.1152,-0.1097,-0.1115,-0.1151,-0.1183,-0.1144,-0.0831,-0.083,-0.0828,-0.0827,0,0,-0.1646,-0.1607,-0.1616,-0.1533,-0.1544,-0.1481,-0.1463,-0.1395,-0.137,-0.1268,-0.119,-0.1256,-0.128,-0.1045,-0.101,-0.0897,-0.1014,-0.0846,-0.1247,-0.1303,-0.1334,-0.1422,-0.14,0,0,0,0,0]},{"header":{"parameterUnit":"m.s-1","parameterCategory":2,"la1":30.2991,"la2":30.254,"lo1":-89.0895,"lo2":-89.0444,"dy":0.0017,"dx":0.0017,"nx":28,"ny":28,"refTime":"2024-05-07T21:00:00:Z","depth":"2","parameterNumber":3,"parameterNumberName":"V-component_of_CURRENTS"},"data":[0,0,0,0,0,0,0,0,0,0,0,0,0,0,0,0,0,0,0,0,0,0,0,0,0,0,0,0,0,0,0,0,0,0,0,0,0,0,0,0,0,0,0,0,0,0,0,0,0,0,0,0,0,0,0,0,0,0,-0.0226,-0.0225,0,-0.0143,-0.0142,-0.0141,-0.0083,-0.0083,-0.0082,-0.0082,0.0037,0.0039,0.0042,0,0,0,0,0,0,0,0,0,0,0,0,0,-0.0289,-0.0288,-0.0226,-0.0225,-0.0224,-0.0143,-0.0142,-0.0141,-0.0083,-0.0083,-0.0082,-0.0082,0.0036,0.0039,0.0042,0,0,0,0,0,0,0,0,0,0,0,0,0,-0.0238,-0.0288,-0.0226,-0.0186,-0.0182,-0.0144,-0.0142,-0.0141,-0.0083,-0.0083,-0.0082,-0.0082,0.0035,0.0039,0.0043,0.0059,0,0,0.0056,0.0058,0,0,0,0,0,0,0,0,-0.0241,-0.0236,-0.0193,-0.0189,-0.0184,-0.0124,-0.0121,-0.0072,-0.0083,-0.0119,-0.0082,-0.0081,-0.0015,-0.0007,0.0009,0.0065,0.007,0.0056,0.0059,0.0061,0.0062,0,0,0,0,0,0,0,-0.0245,-0.0239,-0.0192,-0.0192,-0.0187,-0.0158,-0.015,-0.0111,-0.0069,-0.0116,-0.0112,-0.0105,-0.0012,0.0005,0.0012,0.0072,0.0056,0.006,0.0063,0.0064,0.0161,0.0161,0,0,0,0,0,0,-0.0261,-0.0243,-0.0194,-0.0189,-0.0214,-0.0157,-0.0149,-0.0143,-0.007,-0.006,-0.0106,-0.0103,-0.0003,0.0007,0.0017,0.0047,0.0061,0.0065,0.0067,0.0161,0.0161,0.016,0,0,0,0,0,0,-0.0262,-0.0257,-0.0198,-0.0215,-0.0206,-0.0157,-0.0151,-0.0141,-0.0124,-0.0063,-0.0051,-0.0098,-0.0002,0.0011,0.0053,0.0052,0.0067,0.0071,0.0161,0.0161,0.0161,0.0103,0,0,0,0,0,0,-0.0265,-0.0258,-0.0262,-0.0216,-0.0205,-0.0182,-0.0151,-0.014,-0.0121,-0.0116,-0.0052,-0.0041,-0.0001,0.0046,0.0057,0.0058,0.0074,0.0161,0.0161,0.0161,0.0105,0.0101,0.0097,0,0,0,0,0,-0.0267,-0.0275,-0.0262,-0.0256,-0.0211,-0.0183,-0.0174,-0.0137,-0.0122,-0.0118,-0.0071,-0.0043,0.0054,0.0049,0.0062,0.0064,0.0161,0.0161,0.0161,0.0106,0.0102,0.0098,0,0,0,0,0,0,-0.0304,-0.0269,-0.0254,-0.025,-0.0222,-0.0173,-0.0168,-0.0143,-0.0104,-0.0098,-0.004,-0.0025,0.0009,0.0044,0.0038,0.0092,0.0111,0.0113,0.0065,0.0061,0.0058,0.0044,0.0077,0,0,0,0,0,-0.0316,-0.0312,-0.0272,-0.0271,-0.026,-0.0216,-0.0201,-0.0175,-0.0135,-0.0117,-0.0073,-0.0024,0.0019,0.0045,0.0085,0.0116,0.0157,0.0125,0.0122,0.0118,0.0116,0.0182,0.0184,0.016,0.016,0.016,0,0,-0.0331,-0.0311,-0.0309,-0.0279,-0.0254,-0.0244,-0.0205,-0.0187,-0.0175,-0.011,-0.0082,-0.0038,0.0023,0.0058,0.0076,0.0088,0.0145,0.0118,0.0115,0.0115,0.0182,0.0185,0.0187,0.016,0.016,0.016,0,0,-0.0362,-0.0342,-0.035,-0.0329,-0.0299,-0.0269,-0.0268,-0.0223,-0.0199,-0.0167,-0.0117,-0.0071,-0.0012,0.0037,0.0069,0.007,0.012,0.0078,0.0055,0.0119,0.0121,0.0124,0.0169,0.0176,0.008,0.008,0.008,0,-0.0384,-0.0385,-0.0349,-0.0349,-0.0337,-0.0286,-0.0289,-0.0257,-0.0204,-0.0182,-0.0168,-0.0068,-0.002,0.0039,0.0038,0.0062,0.0099,0.0065,0.0114,0.0118,0.0122,0.0167,0.0176,0.0077,0.0078,0.0078,0.0078,0,-0.0416,-0.0417,-0.042,-0.0403,-0.0385,-0.038,-0.0333,-0.0311,-0.0278,-0.0238,-0.0182,-0.0111,-0.0049,-0.0028,0.0006,0.0057,0.0073,0.0097,0.0122,0.012,0.0169,0.0179,0.0073,0.0074,0.0075,0.0076,0,0,-0.0467,-0.0448,-0.045,-0.0452,-0.0413,-0.0403,-0.0381,-0.0341,-0.0321,-0.0265,-0.0229,-0.0152,-0.0108,-0.007,-0.0014,0.0041,0.0096,0.0073,0.0078,0.0112,0.0225,0.0253,0.0267,0.0129,0.0131,0.0132,0.0243,0,-0.0505,-0.0528,-0.0498,-0.0512,-0.0519,-0.0463,-0.0446,-0.0401,-0.0351,-0.0303,-0.0218,-0.0165,-0.0124,-0.0092,-0.003,0.0068,0.0122,0.0063,0.0226,0.0231,0.0252,0.028,0.0235,0.0332,0.0254,0.0256,0.0257,0,-0.0547,-0.0558,-0.0583,-0.0569,-0.0565,-0.0559,-0.0517,-0.0492,-0.0407,-0.0366,-0.0292,-0.022,-0.0126,-0.0095,0.007,0.003,0.0116,0.019,0.0197,0.0251,0.0279,0.0325,0.0355,0.0275,0.0273,0.0272,0.0271,0,-0.0611,-0.0615,-0.064,-0.0635,-0.0609,-0.0604,-0.0583,-0.0515,-0.0489,-0.0401,-0.0369,-0.0246,-0.0175,-0.0054,0.0098,0.0088,0.0278,0.0288,0.0395,0.0397,0.0406,0.0407,0.0401,0.0401,0.0401,0.04,0.04,0,-0.0666,-0.0685,-0.0673,-0.0689,-0.071,-0.0665,-0.0663,-0.0621,-0.055,-0.0508,-0.0408,-0.0338,-0.016,-0.0027,0.0095,0.0281,0.0282,0.0398,0.0436,0.0384,0.0381,0.0368,0.0363,0.0404,0.0404,0.0403,0.0402,0,-0.0732,-0.0724,-0.0755,-0.0746,-0.0744,-0.0761,-0.0727,-0.0716,-0.0645,-0.0585,-0.0557,-0.0392,-0.0211,-0.0038,0.0182,0.0286,0.0451,0.0512,0.043,0.0456,0.0523,0.0514,0.0643,0.0645,0.0647,0.0648,0.065,0,-0.0767,-0.0791,-0.0811,-0.0834,-0.0833,-0.0844,-0.0844,-0.0777,-0.0752,-0.0607,-0.0577,-0.0388,-0.023,0.0088,0.0301,0.0526,0.0515,0.06,0.0579,0.0529,0.0552,0.054,0.0528,0.0564,0.0564,0.0564,0.0565,0,-0.0832,-0.0837,-0.0865,-0.092,-0.0938,-0.0947,-0.0934,-0.0919,-0.0815,-0.0736,-0.057,-0.0425,-0.0111,0.0154,0.0427,0.0538,0.0559,0.0616,0.061,0.0506,0.0463,0.0483,0.0472,0.0568,0.0568,0.0567,0.0567,0.0567,-0.0873,-0.0914,-0.0951,-0.0998,-0.1026,-0.103,-0.1019,-0.0961,-0.0886,-0.0709,-0.0571,-0.0315,-0.0084,0.0335,0.0506,0.0649,0.0651,0.067,0.0665,0.0661,0.0629,0.0592,0.0713,0.0714,0.0714,0.0715,0.0715,0,-0.0924,-0.0962,-0.102,-0.107,-0.1119,-0.1101,-0.1061,-0.1022,-0.0907,-0.0684,-0.0485,-0.0214,0.0096,0.0326,0.0577,0.0722,0.0685,0.0714,0.0639,0.0635,0.0632,0.0594,0.0672,0.0673,0.0673,0.0674,0,0,-0.0948,-0.1019,-0.105,-0.1137,-0.1169,-0.1182,-0.1148,-0.1062,-0.0901,-0.066,-0.0426,-0.0131,0.0141,0.031,0.0467,0.0588,0.0566,0.0578,0.0593,0.0479,0.0474,0.0583,0.0519,0,0,0,0,0]}],[{"header":{"parameterUnit":"m.s-1","parameterCategory":2,"la1":30.2991,"la2":30.254,"lo1":-89.0895,"lo2":-89.0444,"dy":0.0017,"dx":0.0017,"nx":28,"ny":28,"refTime":"2024-05-07T21:00:00:Z","depth":"4","parameterNumber":2,"parameterNumberName":"U-component_of_CURRENTS"},"data":[0,0,0,0,0,0,0,0,0,0,0,0,0,0,0,0,0,0,0,0,0,0,0,0,0,0,0,0,0,0,0,0,0,0,0,0,0,0,0,0,0,0,0,0,0,0,0,0,0,0,0,0,0,0,0,0,0,0,-0.1562,-0.1563,0,-0.1627,-0.1627,-0.1628,-0.1659,-0.166,-0.166,-0.166,-0.1703,-0.1704,-0.1705,0,0,0,0,0,0,0,0,0,0,0,0,0,-0.1471,-0.1472,-0.1562,-0.1563,-0.1564,-0.1627,-0.1627,-0.1628,-0.1659,-0.166,-0.166,-0.166,-0.1703,-0.1704,-0.1705,0,0,0,0,0,0,0,0,0,0,0,0,0,-0.1519,-0.1472,-0.1562,-0.1588,-0.1591,-0.1627,-0.1627,-0.1628,-0.1659,-0.166,-0.166,-0.166,-0.1702,-0.1704,-0.1705,-0.1711,0,0,-0.171,-0.1711,0,0,0,0,0,0,0,0,-0.1516,-0.1522,-0.1583,-0.1586,-0.159,-0.1637,-0.1611,-0.1655,-0.1659,-0.1632,-0.166,-0.166,-0.168,-0.1683,-0.1693,-0.1713,-0.1715,-0.171,-0.1711,-0.1712,-0.1712,0,0,0,0,0,0,0,-0.1513,-0.1519,-0.1586,-0.1584,-0.1588,-0.1599,-0.1606,-0.162,-0.1652,-0.1634,-0.1637,-0.1647,-0.1681,-0.1691,-0.1694,-0.1715,-0.171,-0.1711,-0.1712,-0.1713,-0.1799,-0.18,0,0,0,0,0,0,-0.1508,-0.1516,-0.1584,-0.1588,-0.1555,-0.16,-0.1608,-0.162,-0.1653,-0.1658,-0.1647,-0.1648,-0.1689,-0.1692,-0.1696,-0.1762,-0.1712,-0.1713,-0.1714,-0.1798,-0.1799,-0.1801,0,0,0,0,0,0,-0.1505,-0.1513,-0.1581,-0.1555,-0.1564,-0.1602,-0.1615,-0.1621,-0.1656,-0.1663,-0.1668,-0.1678,-0.1689,-0.1694,-0.1734,-0.1761,-0.1714,-0.1715,-0.1796,-0.1798,-0.18,-0.1857,0,0,0,0,0,0,-0.1503,-0.1512,-0.1533,-0.1554,-0.1566,-0.1622,-0.1615,-0.1623,-0.1661,-0.1664,-0.169,-0.1693,-0.1689,-0.1731,-0.1735,-0.1763,-0.1716,-0.1794,-0.1797,-0.18,-0.1853,-0.1861,-0.1867,0,0,0,0,0,-0.1499,-0.1523,-0.1534,-0.1543,-0.1589,-0.1623,-0.163,-0.1656,-0.1663,-0.1686,-0.1705,-0.1694,-0.175,-0.1734,-0.1738,-0.1767,-0.1793,-0.1796,-0.1799,-0.185,-0.1859,-0.1867,0,0,0,0,0,0,-0.1496,-0.1529,-0.1541,-0.1575,-0.1606,-0.1629,-0.1658,-0.1671,-0.1705,-0.1715,-0.1715,-0.1719,-0.1764,-0.1759,-0.1742,-0.1799,-0.1769,-0.1773,-0.1806,-0.1814,-0.1821,-0.1811,-0.1718,0,0,0,0,0,-0.1504,-0.1533,-0.1562,-0.1593,-0.1611,-0.1639,-0.1662,-0.168,-0.1706,-0.1722,-0.174,-0.1758,-0.1776,-0.1791,-0.1806,-0.1841,-0.1815,-0.1861,-0.1867,-0.1873,-0.1868,-0.1859,-0.1864,-0.1811,-0.1811,-0.1811,0,0,-0.1512,-0.1535,-0.1552,-0.1595,-0.1622,-0.1655,-0.1654,-0.1697,-0.1728,-0.172,-0.1776,-0.1786,-0.1791,-0.1829,-0.1848,-0.1832,-0.1875,-0.1877,-0.1882,-0.1873,-0.1863,-0.1867,-0.1872,-0.1813,-0.1813,-0.1812,0,0,-0.1532,-0.1564,-0.1591,-0.1622,-0.1668,-0.1686,-0.1704,-0.1744,-0.1769,-0.1818,-0.1818,-0.1845,-0.1881,-0.1886,-0.1891,-0.1945,-0.1912,-0.1956,-0.1983,-0.1976,-0.1979,-0.1982,-0.1954,-0.1954,-0.1959,-0.1959,-0.1959,0,-0.1543,-0.1579,-0.1606,-0.1641,-0.167,-0.1702,-0.1737,-0.1768,-0.1818,-0.1837,-0.1845,-0.1892,-0.1903,-0.1931,-0.1954,-0.1959,-0.1942,-0.1952,-0.1983,-0.1985,-0.1987,-0.1957,-0.1957,-0.1962,-0.1962,-0.1962,-0.1961,0,-0.1574,-0.1616,-0.1638,-0.1689,-0.1723,-0.1763,-0.1803,-0.1844,-0.1876,-0.1898,-0.1945,-0.196,-0.1981,-0.1996,-0.1994,-0.202,-0.1998,-0.1992,-0.1959,-0.1996,-0.1962,-0.196,-0.1967,-0.1966,-0.1965,-0.1964,0,0,-0.1558,-0.1643,-0.1653,-0.1684,-0.1754,-0.1779,-0.1839,-0.1887,-0.1916,-0.1966,-0.1994,-0.2037,-0.2041,-0.2047,-0.2049,-0.2049,-0.2055,-0.2034,-0.2032,-0.1998,-0.2024,-0.1893,-0.1878,-0.2057,-0.2057,-0.2057,-0.1993,0,-0.1576,-0.1641,-0.1682,-0.1747,-0.178,-0.1832,-0.1877,-0.1927,-0.1966,-0.2002,-0.2022,-0.2053,-0.2062,-0.2074,-0.2079,-0.2062,-0.2054,-0.2072,-0.1998,-0.1996,-0.1869,-0.1873,-0.2058,-0.1992,-0.1991,-0.1991,-0.199,0,-0.1581,-0.1626,-0.1693,-0.1768,-0.1788,-0.1834,-0.19,-0.1947,-0.2002,-0.203,-0.2063,-0.2077,-0.2098,-0.2093,-0.2078,-0.2091,-0.2064,-0.2043,-0.204,-0.1893,-0.1861,-0.1948,-0.1986,-0.1987,-0.1987,-0.1987,-0.1987,0,-0.1534,-0.1627,-0.168,-0.171,-0.1802,-0.1843,-0.1891,-0.1956,-0.199,-0.2046,-0.2065,-0.2092,-0.2103,-0.2086,-0.2059,-0.2073,-0.2016,-0.2025,-0.1875,-0.1866,-0.1979,-0.1976,-0.1999,-0.1999,-0.1999,-0.2,-0.2,0,-0.1515,-0.156,-0.1668,-0.1696,-0.1752,-0.1824,-0.1881,-0.1931,-0.1992,-0.201,-0.2075,-0.2071,-0.2104,-0.2081,-0.2052,-0.1944,-0.201,-0.1865,-0.1837,-0.2004,-0.2006,-0.1976,-0.1975,-0.1997,-0.1998,-0.1998,-0.1999,0,-0.1449,-0.1528,-0.1591,-0.1698,-0.1734,-0.1772,-0.1871,-0.1896,-0.1973,-0.1995,-0.2014,-0.206,-0.202,-0.2018,-0.1974,-0.1914,-0.1836,-0.1781,-0.1943,-0.1927,-0.1694,-0.1697,-0.1604,-0.1599,-0.1594,-0.1591,-0.1587,0,-0.1417,-0.1446,-0.1571,-0.1605,-0.166,-0.1733,-0.1771,-0.1871,-0.1889,-0.196,-0.1944,-0.1951,-0.1958,-0.1778,-0.1805,-0.1717,-0.1701,-0.1658,-0.1692,-0.167,-0.1652,-0.1662,-0.167,-0.158,-0.1579,-0.1578,-0.1577,0,-0.1342,-0.1403,-0.1452,-0.1524,-0.1582,-0.1632,-0.1694,-0.1697,-0.1786,-0.1878,-0.1812,-0.1774,-0.1718,-0.1672,-0.1611,-0.1559,-0.1687,-0.1612,-0.1622,-0.1653,-0.164,-0.163,-0.1643,-0.1562,-0.1564,-0.1565,-0.1566,0,-0.1277,-0.1293,-0.1363,-0.1407,-0.1481,-0.1491,-0.1551,-0.1556,-0.1588,-0.1672,-0.164,-0.1642,-0.169,-0.1586,-0.153,-0.1465,-0.145,-0.1415,-0.1434,-0.1452,-0.1432,-0.1395,-0.12,0,0,0,0,0,-0.1194,-0.1194,-0.1233,-0.127,-0.1337,-0.1364,-0.147,-0.1529,-0.1622,-0.1528,-0.1579,-0.1514,-0.1432,-0.144,-0.1335,-0.1463,-0.146,-0.1339,-0.1433,-0.1476,-0.1494,-0.1485,0,0,0,0,0,0,-0.1139,-0.1171,-0.1184,-0.1138,-0.1123,-0.1171,-0.1227,-0.13,-0.1262,-0.1363,-0.132,-0.14,-0.1337,-0.1432,-0.1284,-0.1287,-0.1315,-0.1355,-0.1351,-0.1466,-0.1482,-0.1497,-0.1494,0,0,0,0,0]},{"header":{"parameterUnit":"m.s-1","parameterCategory":2,"la1":30.2991,"la2":30.254,"lo1":-89.0895,"lo2":-89.0444,"dy":0.0017,"dx":0.0017,"nx":28,"ny":28,"refTime":"2024-05-07T21:00:00:Z","depth":"4","parameterNumber":3,"parameterNumberName":"V-component_of_CURRENTS"},"data":[0,0,0,0,0,0,0,0,0,0,0,0,0,0,0,0,0,0,0,0,0,0,0,0,0,0,0,0,0,0,0,0,0,0,0,0,0,0,0,0,0,0,0,0,0,0,0,0,0,0,0,0,0,0,0,0,0,0,-0.0183,-0.0182,0,-0.0118,-0.0117,-0.0116,-0.0077,-0.0076,-0.0076,-0.0076,0.0023,0.0026,0.0028,0,0,0,0,0,0,0,0,0,0,0,0,0,-0.0231,-0.023,-0.0183,-0.0182,-0.0181,-0.0118,-0.0117,-0.0116,-0.0077,-0.0076,-0.0076,-0.0076,0.0022,0.0025,0.0028,0,0,0,0,0,0,0,0,0,0,0,0,0,-0.0191,-0.023,-0.0183,-0.0155,-0.0152,-0.0119,-0.0117,-0.0116,-0.0077,-0.0076,-0.0076,-0.0076,0.0021,0.0025,0.0029,0.005,0,0,0.0041,0.0042,0,0,0,0,0,0,0,0,-0.0193,-0.0189,-0.016,-0.0157,-0.0153,-0.0107,-0.0098,-0.0059,-0.0077,-0.0104,-0.0076,-0.0076,-0.0018,-0.0011,0.0002,0.0055,0.0059,0.0041,0.0043,0.0045,0.0046,0,0,0,0,0,0,0,-0.0196,-0.0192,-0.0156,-0.0159,-0.0155,-0.0132,-0.0126,-0.009,-0.0061,-0.0101,-0.0099,-0.0094,-0.0016,-0.0001,0.0005,0.006,0.0041,0.0044,0.0047,0.0048,0.0128,0.0127,0,0,0,0,0,0,-0.0209,-0.0194,-0.0158,-0.0154,-0.0175,-0.0131,-0.0125,-0.0121,-0.0062,-0.0053,-0.0094,-0.0092,-0.0008,0.0001,0.0009,0.0028,0.0045,0.0048,0.0051,0.0128,0.0128,0.0127,0,0,0,0,0,0,-0.0211,-0.0207,-0.016,-0.0174,-0.0166,-0.0131,-0.0126,-0.0119,-0.0107,-0.0057,-0.0047,-0.0089,-0.0008,0.0003,0.0039,0.0032,0.005,0.0054,0.0128,0.0128,0.0127,0.0072,0,0,0,0,0,0,-0.0212,-0.0207,-0.0211,-0.0175,-0.0166,-0.0147,-0.0126,-0.0118,-0.0105,-0.0102,-0.0049,-0.004,-0.0007,0.0033,0.0043,0.0038,0.0057,0.0128,0.0128,0.0128,0.0074,0.0069,0.0066,0,0,0,0,0,-0.0214,-0.0219,-0.0212,-0.0208,-0.0172,-0.0147,-0.0141,-0.0114,-0.0105,-0.0102,-0.0065,-0.0042,0.0037,0.0036,0.0048,0.0043,0.0128,0.0128,0.0128,0.0075,0.007,0.0066,0,0,0,0,0,0,-0.024,-0.0214,-0.0206,-0.0202,-0.0181,-0.0141,-0.0137,-0.0119,-0.0088,-0.0085,-0.0038,-0.0026,-0.0,0.0031,0.0028,0.0065,0.0084,0.0086,0.0041,0.0036,0.0032,0.0021,0.006,0,0,0,0,0,-0.0249,-0.0248,-0.0217,-0.0216,-0.0208,-0.0175,-0.0163,-0.0145,-0.0112,-0.0098,-0.0063,-0.0025,0.0008,0.0029,0.0061,0.0087,0.0119,0.009,0.0086,0.0082,0.008,0.0126,0.0126,0.0126,0.0126,0.0126,0,0,-0.026,-0.0246,-0.0246,-0.0223,-0.0204,-0.0197,-0.0167,-0.0153,-0.0146,-0.0092,-0.0073,-0.0037,0.0011,0.0035,0.0049,0.0061,0.0098,0.0081,0.0078,0.0078,0.0125,0.0125,0.0125,0.0126,0.0126,0.0126,0,0,-0.0282,-0.0269,-0.0275,-0.026,-0.0238,-0.0216,-0.0216,-0.0181,-0.0165,-0.0141,-0.0104,-0.0071,-0.0022,0.0012,0.0035,0.0031,0.0073,0.0037,0.0013,0.0057,0.0057,0.0058,0.0093,0.0098,0.0038,0.0038,0.0038,0,-0.0298,-0.03,-0.0273,-0.0273,-0.0268,-0.023,-0.0235,-0.0212,-0.017,-0.0158,-0.0144,-0.0071,-0.0033,0.0004,0.0,0.0022,0.0051,0.0026,0.0051,0.0053,0.0055,0.0091,0.0097,0.0035,0.0036,0.0036,0.0036,0,-0.0319,-0.0324,-0.0326,-0.0317,-0.0305,-0.0304,-0.0271,-0.0258,-0.0236,-0.0208,-0.0173,-0.0117,-0.0073,-0.0058,-0.0028,0.0,0.0018,0.0038,0.0061,0.0051,0.009,0.0097,0.0031,0.0032,0.0033,0.0034,0,0,-0.0353,-0.0344,-0.0348,-0.0355,-0.0331,-0.0325,-0.0315,-0.0292,-0.0286,-0.0242,-0.0224,-0.0168,-0.0135,-0.0106,-0.0063,-0.0024,0.0012,0.0008,0.0011,0.0038,0.0104,0.01,0.0107,0.0037,0.0038,0.0039,0.0124,0,-0.0382,-0.0403,-0.0385,-0.0404,-0.0413,-0.0379,-0.0373,-0.0346,-0.0314,-0.0285,-0.0224,-0.0188,-0.0153,-0.0131,-0.0087,-0.0009,0.0028,-0.0013,0.0114,0.0118,0.0112,0.0114,0.0042,0.0129,0.0131,0.0132,0.0133,0,-0.0411,-0.0423,-0.0451,-0.0454,-0.0454,-0.0457,-0.0443,-0.043,-0.0376,-0.0349,-0.03,-0.0243,-0.0177,-0.0148,-0.0025,-0.0053,0.0016,0.0075,0.008,0.0101,0.0126,0.0145,0.0146,0.0145,0.0144,0.0143,0.0142,0,-0.0457,-0.047,-0.0498,-0.05,-0.0493,-0.05,-0.0494,-0.0456,-0.0444,-0.0387,-0.0366,-0.0278,-0.0225,-0.0132,-0.001,-0.0015,0.0127,0.0139,0.0199,0.02,0.0203,0.0201,0.022,0.022,0.0219,0.0219,0.0219,0,-0.0494,-0.0519,-0.0526,-0.0543,-0.0576,-0.055,-0.0567,-0.0544,-0.0503,-0.048,-0.0405,-0.0357,-0.0217,-0.0116,-0.0017,0.0112,0.0124,0.0195,0.0223,0.0176,0.0171,0.0207,0.0205,0.0222,0.0222,0.0221,0.0221,0,-0.0539,-0.0542,-0.0581,-0.0594,-0.0601,-0.0626,-0.0623,-0.0625,-0.0582,-0.0548,-0.0529,-0.0405,-0.027,-0.0134,0.0036,0.0105,0.0227,0.0269,0.0206,0.0228,0.0271,0.0264,0.034,0.0341,0.0341,0.0342,0.0342,0,-0.0562,-0.0586,-0.063,-0.0659,-0.0671,-0.0698,-0.0712,-0.0675,-0.0662,-0.0569,-0.0548,-0.0412,-0.0319,-0.0084,0.0052,0.0236,0.0259,0.0313,0.0291,0.0265,0.0284,0.0277,0.027,0.0343,0.0343,0.0343,0.0343,0,-0.0606,-0.0627,-0.066,-0.0728,-0.076,-0.0783,-0.079,-0.0779,-0.0714,-0.0677,-0.0543,-0.0406,-0.0251,-0.0072,0.0071,0.0201,0.0271,0.0318,0.0318,0.0298,0.0269,0.0286,0.0279,0.0345,0.0345,0.0344,0.0344,0,-0.0641,-0.0681,-0.0733,-0.0785,-0.0836,-0.0851,-0.0842,-0.0793,-0.0759,-0.0634,-0.0584,-0.0406,-0.0287,-0.0088,0.0044,0.0169,0.0197,0.0225,0.023,0.0229,0.0167,0.0112,0.0164,0,0,0,0,0,-0.0668,-0.0717,-0.0781,-0.0839,-0.0891,-0.0912,-0.0888,-0.0858,-0.0784,-0.0692,-0.0629,-0.0476,-0.0242,-0.0137,-0.0012,0.0027,0.0192,0.0174,0.0219,0.0354,0.0352,0.0298,0,0,0,0,0,0,-0.0687,-0.0758,-0.0791,-0.0873,-0.0921,-0.0962,-0.0944,-0.0886,-0.0813,-0.0717,-0.0587,-0.0481,-0.0258,-0.0331,-0.0027,0.0014,0.0055,0.0293,0.0295,0.0356,0.0354,0.0352,0.0295,0,0,0,0,0]}]]